Location: Neuvy Saint Sepulchre
(46.5953°N, 1.8122°E)
Time: 10:25:44
(UTC+02:00)

ISS - Pass Details

Date: 23 April 2026
Orbit: 416 x 424 km, 51.6° (Epoch: 13 April)

Event Time Altitude Azimuth Distance (km) Brightness Sun altitude
Exits shadow 06:15:49 - 259° (W) 1,658 -1.4 -6.5°
Reaches altitude 10° 06:16:13 10° 261° (W) 1,497 -1.6 -6.5°
Maximum altitude 06:19:31 56° 340° (NNW) 508 -3.3 -5.9°
Drops below altitude 10° 06:22:52 10° 60° (ENE) 1,507 0.9 -5.4°
Sets 06:25:00 0° 65° (ENE) 2,374 3.2 -5.1°
